Wetterdaten: aktuell Samstag, 20.07.2019 10:06
Datum Zeit Temp. I. Temp. 2m Temp. 5cm Temp. Wr2 LF I. Luftf.2m LF Wr2 Luftdruck Regen Wind Richtung Richtung Taupunkt Windchill Windben
20.07.2019 10:06 26,0 C 23,3 C 37,9 C 20,9 C 51 % 62 % 63 % 1018,3 hPa 0,0 l/m 2,1 km/h (1 Bft) W-NW 292 15,6 C 23,3 C 5,8 km/h (2 Bft)
20.07.2019 10:04 26,0 C 23,3 C 37,3 C 20,9 C 51 % 63 % 63 % 1018,4 hPa 0,0 l/m 1,4 km/h (1 Bft) NO 45 15,9 C 23,3 C 5,8 km/h (2 Bft)
20.07.2019 10:02 26,0 C 23,3 C 36,5 C 20,9 C 51 % 62 % 63 % 1018,4 hPa 0,0 l/m 1,3 km/h (1 Bft) NO 45 15,6 C 23,3 C 5,8 km/h (2 Bft)
20.07.2019 10:00 26,0 C 23,5 C 37,1 C 20,9 C 51 % 63 % 63 % 1018,4 hPa 0,0 l/m 1,3 km/h (1 Bft) NO 45 16,0 C 23,5 C 5,8 km/h (2 Bft)
20.07.2019 09:58 26,0 C 23,5 C 36,6 C 20,9 C 51 % 63 % 63 % 1018,4 hPa 0,0 l/m 1,4 km/h (1 Bft) O-NO 67 16,0 C 23,5 C 7,2 km/h (2 Bft)
20.07.2019 09:56 25,9 C 23,5 C 36,1 C 20,9 C 51 % 63 % 63 % 1018,4 hPa 0,0 l/m 1,4 km/h (1 Bft) NO 45 16,0 C 23,5 C 7,2 km/h (2 Bft)
20.07.2019 09:54 25,9 C 23,3 C 36,2 C 20,9 C 51 % 63 % 63 % 1018,4 hPa 0,0 l/m 1,3 km/h (1 Bft) N 360 15,9 C 23,3 C 0,0 km/h (0 Bft)
20.07.2019 09:52 25,9 C 23,4 C 36,3 C 20,9 C 51 % 62 % 63 % 1018,4 hPa 0,0 l/m 1,3 km/h (1 Bft) N-NW 337 15,7 C 23,4 C 0,0 km/h (0 Bft)
20.07.2019 09:50 25,8 C 23,8 C 36,6 C 20,9 C 51 % 62 % 63 % 1018,4 hPa 0,0 l/m 1,8 km/h (1 Bft) N-NW 337 16,1 C 23,8 C 6,8 km/h (2 Bft)
20.07.2019 09:48 25,8 C 24,2 C 36,6 C 20,9 C 51 % 63 % 63 % 1018,4 hPa 0,0 l/m 1,8 km/h (1 Bft) NO 45 16,7 C 24,2 C 6,8 km/h (2 Bft)
20.07.2019 09:46 25,8 C 23,9 C 36,6 C 20,9 C 51 % 62 % 63 % 1018,4 hPa 0,0 l/m 1,6 km/h (1 Bft) O-SO 112 16,2 C 23,9 C 2,9 km/h (1 Bft)
20.07.2019 09:44 25,8 C 23,8 C 35,8 C 20,9 C 51 % 61 % 63 % 1018,1 hPa 0,0 l/m 1,4 km/h (1 Bft) O-NO 67 15,8 C 23,8 C 3,9 km/h (1 Bft)
20.07.2019 09:42 25,8 C 23,8 C 36,6 C 20,9 C 51 % 60 % 63 % 1018,1 hPa 0,0 l/m 1,6 km/h (1 Bft) W 270 15,6 C 23,8 C 5,3 km/h (1 Bft)
20.07.2019 09:40 25,7 C 23,9 C 36,1 C 20,9 C 51 % 59 % 63 % 1018,1 hPa 0,0 l/m 1,8 km/h (1 Bft) NO 45 15,4 C 23,9 C 5,8 km/h (2 Bft)
20.07.2019 09:38 25,7 C 23,9 C 35,8 C 20,9 C 51 % 59 % 63 % 1018,1 hPa 0,0 l/m 1,6 km/h (1 Bft) NO 45 15,4 C 23,9 C 5,8 km/h (2 Bft)
20.07.2019 09:36 25,7 C 24,0 C 36,0 C 20,9 C 51 % 60 % 63 % 1018,1 hPa 0,0 l/m 1,4 km/h (1 Bft) N-NO 22 15,7 C 24,0 C 3,4 km/h (1 Bft)
20.07.2019 09:34 25,6 C 23,9 C 36,2 C 20,9 C 51 % 60 % 63 % 1018,1 hPa 0,0 l/m 1,4 km/h (1 Bft) S 180 15,7 C 23,9 C 3,9 km/h (1 Bft)
20.07.2019 09:32 25,6 C 24,0 C 35,3 C 20,9 C 51 % 60 % 63 % 1018,1 hPa 0,0 l/m 1,6 km/h (1 Bft) O-NO 67 15,7 C 24,0 C 4,6 km/h (1 Bft)
20.07.2019 09:30 25,6 C 24,0 C 35,7 C 20,9 C 51 % 60 % 63 % 1018,1 hPa 0,0 l/m 1,6 km/h (1 Bft) NO 45 15,7 C 24,0 C 4,6 km/h (1 Bft)
20.07.2019 09:28 25,6 C 23,8 C 35,4 C 20,9 C 51 % 62 % 63 % 1018,1 hPa 0,0 l/m 1,6 km/h (1 Bft) N 360 16,1 C 23,8 C 4,6 km/h (1 Bft)
20.07.2019 09:26 25,6 C 23,6 C 35,8 C 20,9 C 51 % 61 % 63 % 1018,1 hPa 0,0 l/m 1,8 km/h (1 Bft) O-NO 67 15,6 C 23,6 C 2,9 km/h (1 Bft)
20.07.2019 09:24 25,6 C 23,4 C 35,7 C 20,9 C 51 % 59 % 63 % 1018,1 hPa 0,0 l/m 1,9 km/h (1 Bft) O-NO 67 14,9 C 23,4 C 3,9 km/h (1 Bft)
20.07.2019 09:22 25,5 C 23,5 C 35,4 C 20,9 C 51 % 59 % 63 % 1018,1 hPa 0,0 l/m 2,3 km/h (1 Bft) O 90 15,0 C 23,5 C 3,9 km/h (1 Bft)
20.07.2019 09:20 25,5 C 23,4 C 35,5 C 20,9 C 51 % 58 % 63 % 1018,1 hPa 0,0 l/m 2,4 km/h (1 Bft) O-NO 67 14,7 C 23,4 C 2,9 km/h (1 Bft)
20.07.2019 09:18 25,5 C 23,3 C 35,8 C 20,9 C 51 % 58 % 63 % 1018,1 hPa 0,0 l/m 1,9 km/h (1 Bft) N-NO 22 14,6 C 23,3 C 4,1 km/h (1 Bft)
20.07.2019 09:16 25,5 C 23,5 C 35,8 C 20,9 C 51 % 58 % 63 % 1018,1 hPa 0,0 l/m 1,8 km/h (1 Bft) NO 45 14,7 C 23,5 C 5,3 km/h (1 Bft)
20.07.2019 09:14 25,4 C 23,5 C 35,9 C 20,9 C 51 % 59 % 63 % 1018,1 hPa 0,0 l/m 1,3 km/h (1 Bft) O-SO 112 15,0 C 23,5 C 5,3 km/h (1 Bft)
20.07.2019 09:12 25,4 C 23,4 C 36,0 C 20,9 C 51 % 60 % 63 % 1018,1 hPa 0,0 l/m 1,1 km/h (1 Bft) O-NO 67 15,2 C 23,4 C 6,0 km/h (2 Bft)
20.07.2019 09:10 25,4 C 23,3 C 36,0 C 20,9 C 51 % 60 % 63 % 1018,1 hPa 0,0 l/m 0,8 km/h (0 Bft) O 90 15,1 C 23,3 C 6,0 km/h (2 Bft)
20.07.2019 09:08 25,4 C 23,2 C 35,4 C 20,9 C 51 % 60 % 63 % 1018,1 hPa 0,0 l/m 0,6 km/h (0 Bft) O-SO 112 15,0 C 23,2 C 0,0 km/h (0 Bft)
20.07.2019 09:06 25,2 C 23,1 C 35,4 C 20,9 C 51 % 60 % 63 % 1018,1 hPa 0,0 l/m 0,6 km/h (0 Bft) N-NO 22 14,9 C 23,1 C 0,0 km/h (0 Bft)
20.07.2019 09:04 25,3 C 23,2 C 35,2 C 20,9 C 51 % 61 % 63 % 1017,7 hPa 0,0 l/m 0,6 km/h (0 Bft) N-NO 22 15,3 C 23,2 C 0,0 km/h (0 Bft)
20.07.2019 09:02 25,3 C 22,9 C 34,6 C 20,9 C 51 % 63 % 63 % 1017,7 hPa 0,0 l/m 0,5 km/h (0 Bft) O-NO 67 15,5 C 22,9 C 3,4 km/h (1 Bft)
20.07.2019 09:00 25,3 C 22,9 C 35,3 C 20,9 C 51 % 63 % 63 % 1017,7 hPa 0,0 l/m 0,5 km/h (0 Bft) O-NO 67 15,5 C 22,9 C 3,4 km/h (1 Bft)
20.07.2019 08:58 25,2 C 22,9 C 35,1 C 20,9 C 51 % 63 % 63 % 1017,7 hPa 0,0 l/m 0,5 km/h (0 Bft) O-SO 112 15,5 C 22,9 C 2,7 km/h (1 Bft)
20.07.2019 08:56 25,2 C 22,9 C 35,0 C 20,9 C 51 % 64 % 63 % 1017,7 hPa 0,0 l/m 0,8 km/h (0 Bft) O-SO 112 15,7 C 22,9 C 2,4 km/h (1 Bft)
20.07.2019 08:54 25,2 C 23,2 C 34,7 C 20,9 C 51 % 63 % 63 % 1017,7 hPa 0,0 l/m 0,8 km/h (0 Bft) S-SW 202 15,8 C 23,2 C 8,4 km/h (2 Bft)
20.07.2019 08:52 25,2 C 23,0 C 34,0 C 20,9 C 51 % 63 % 63 % 1017,7 hPa 0,0 l/m 0,8 km/h (0 Bft) NO 45 15,6 C 23,0 C 0,0 km/h (0 Bft)
20.07.2019 08:50 25,1 C 22,9 C 33,9 C 20,9 C 51 % 64 % 63 % 1017,7 hPa 0,0 l/m 0,8 km/h (0 Bft) N-NW 337 15,7 C 22,9 C 4,3 km/h (1 Bft)
20.07.2019 08:48 25,1 C 22,9 C 34,0 C 20,9 C 51 % 65 % 63 % 1017,7 hPa 0,0 l/m 1,1 km/h (1 Bft) N-NW 337 16,0 C 22,9 C 8,4 km/h (2 Bft)
20.07.2019 08:46 25,1 C 22,8 C 34,2 C 20,9 C 51 % 66 % 63 % 1017,7 hPa 0,0 l/m 1,1 km/h (1 Bft) O 90 16,1 C 22,8 C 8,4 km/h (2 Bft)
20.07.2019 08:44 25,1 C 22,7 C 33,9 C 20,9 C 51 % 64 % 63 % 1017,8 hPa 0,0 l/m 0,8 km/h (0 Bft) NO 45 15,5 C 22,7 C 8,2 km/h (2 Bft)
20.07.2019 08:42 25,0 C 22,7 C 33,8 C 20,9 C 51 % 67 % 63 % 1017,8 hPa 0,0 l/m 0,8 km/h (0 Bft) W-SW 247 16,2 C 22,7 C 0,0 km/h (0 Bft)
20.07.2019 08:40 24,9 C 22,6 C 33,4 C 20,9 C 51 % 66 % 63 % 1017,8 hPa 0,0 l/m 1,0 km/h (0 Bft) N-NO 22 15,9 C 22,6 C 2,9 km/h (1 Bft)
20.07.2019 08:38 24,9 C 22,5 C 33,1 C 20,9 C 51 % 66 % 63 % 1017,8 hPa 0,0 l/m 0,8 km/h (0 Bft) O-NO 67 15,8 C 22,5 C 5,3 km/h (1 Bft)
20.07.2019 08:36 25,0 C 22,2 C 33,0 C 20,9 C 51 % 66 % 63 % 1017,8 hPa 0,0 l/m 0,8 km/h (0 Bft) O-NO 67 15,5 C 22,2 C 5,3 km/h (1 Bft)
20.07.2019 08:34 24,8 C 22,0 C 32,8 C 20,9 C 51 % 66 % 63 % 1017,8 hPa 0,0 l/m 0,8 km/h (0 Bft) NO 45 15,3 C 22,0 C 2,9 km/h (1 Bft)
20.07.2019 08:32 24,8 C 21,9 C 31,9 C 20,9 C 51 % 67 % 63 % 1017,8 hPa 0,0 l/m 1,1 km/h (1 Bft) S-SW 202 15,5 C 21,9 C 7,0 km/h (2 Bft)
20.07.2019 08:30 24,8 C 21,9 C 31,2 C 20,9 C 51 % 67 % 63 % 1017,8 hPa 0,0 l/m 1,3 km/h (1 Bft) O-SO 112 15,5 C 21,9 C 7,0 km/h (2 Bft)
20.07.2019 08:28 24,8 C 21,9 C 30,6 C 20,9 C 51 % 67 % 63 % 1017,8 hPa 0,0 l/m 1,3 km/h (1 Bft) N-NO 22 15,5 C 21,9 C 2,4 km/h (1 Bft)
20.07.2019 08:26 24,8 C 21,5 C 31,3 C 20,9 C 51 % 67 % 63 % 1017,8 hPa 0,0 l/m 1,1 km/h (1 Bft) N-NW 337 15,1 C 21,5 C 4,6 km/h (1 Bft)
20.07.2019 08:24 24,8 C 21,3 C 31,0 C 20,9 C 51 % 67 % 63 % 1017,4 hPa 0,0 l/m 1,1 km/h (1 Bft) NO 45 14,9 C 21,3 C 4,6 km/h (1 Bft)
20.07.2019 08:22 24,6 C 21,2 C 30,8 C 20,9 C 51 % 67 % 63 % 1017,4 hPa 0,0 l/m 1,0 km/h (0 Bft) NW 315 14,8 C 21,2 C 3,6 km/h (1 Bft)
20.07.2019 08:20 24,6 C 21,3 C 31,0 C 20,9 C 51 % 69 % 63 % 1017,4 hPa 0,0 l/m 0,8 km/h (0 Bft) S-SO 157 15,4 C 21,3 C 4,8 km/h (1 Bft)
20.07.2019 08:18 24,6 C 21,0 C 30,3 C 20,9 C 51 % 70 % 63 % 1017,4 hPa 0,0 l/m 0,6 km/h (0 Bft) N-NO 22 15,3 C 21,0 C 4,8 km/h (1 Bft)
20.07.2019 08:16 24,6 C 21,0 C 29,8 C 20,9 C 51 % 69 % 63 % 1017,4 hPa 0,0 l/m 0,6 km/h (0 Bft) N-NO 22 15,1 C 21,0 C 0,0 km/h (0 Bft)
20.07.2019 08:14 24,6 C 20,9 C 29,5 C 20,9 C 52 % 69 % 63 % 1017,4 hPa 0,0 l/m 0,5 km/h (0 Bft) NW 315 15,0 C 20,9 C 4,8 km/h (1 Bft)
20.07.2019 08:12 24,6 C 20,9 C 29,0 C 20,9 C 51 % 71 % 63 % 1017,4 hPa 0,0 l/m 0,5 km/h (0 Bft) O-NO 67 15,4 C 20,9 C 4,8 km/h (1 Bft)
20.07.2019 08:10 24,5 C 20,7 C 29,2 C 20,9 C 52 % 69 % 63 % 1017,4 hPa 0,0 l/m 0,3 km/h (0 Bft) O-SO 112 14,8 C 20,7 C 3,4 km/h (1 Bft)
20.07.2019 08:08 24,5 C 20,6 C 28,7 C 20,8 C 52 % 69 % 63 % 1017,4 hPa 0,0 l/m 0,3 km/h (0 Bft) S-SO 157 14,7 C 20,6 C 3,4 km/h (1 Bft)
20.07.2019 08:06 24,5 C 20,7 C 28,7 C 20,8 C 52 % 71 % 63 % 1017,4 hPa 0,0 l/m 0,2 km/h (0 Bft) SW 225 15,2 C 20,7 C 0,0 km/h (0 Bft)
20.07.2019 08:04 24,4 C 20,5 C 28,4 C 20,8 C 52 % 70 % 63 % 1017,4 hPa 0,0 l/m 0,2 km/h (0 Bft) NW 315 14,8 C 20,5 C 0,0 km/h (0 Bft)
20.07.2019 08:02 24,4 C 20,6 C 28,5 C 20,8 C 52 % 69 % 63 % 1017,4 hPa 0,0 l/m 0,3 km/h (0 Bft) SW 225 14,7 C 20,6 C 3,4 km/h (1 Bft)
20.07.2019 08:00 24,4 C 20,7 C 28,5 C 20,8 C 52 % 71 % 63 % 1017,4 hPa 0,0 l/m 0,3 km/h (0 Bft) O 90 15,2 C 20,7 C 3,4 km/h (1 Bft)
20.07.2019 07:58 24,4 C 20,7 C 28,4 C 20,8 C 52 % 72 % 63 % 1017,4 hPa 0,0 l/m 0,2 km/h (0 Bft) O-NO 67 15,5 C 20,7 C 2,4 km/h (1 Bft)
20.07.2019 07:56 24,3 C 20,6 C 28,2 C 20,8 C 52 % 72 % 63 % 1017,4 hPa 0,0 l/m 0,3 km/h (0 Bft) NW 315 15,4 C 20,6 C 0,0 km/h (0 Bft)
20.07.2019 07:54 24,2 C 20,4 C 27,7 C 20,8 C 52 % 71 % 63 % 1017,4 hPa 0,0 l/m 0,5 km/h (0 Bft) N-NW 337 15,0 C 20,4 C 4,3 km/h (1 Bft)
20.07.2019 07:52 24,3 C 20,1 C 27,3 C 20,8 C 52 % 71 % 63 % 1017,4 hPa 0,0 l/m 0,5 km/h (0 Bft) O-NO 67 14,7 C 20,1 C 4,3 km/h (1 Bft)
20.07.2019 07:50 24,2 C 20,1 C 26,6 C 20,7 C 52 % 72 % 63 % 1017,4 hPa 0,0 l/m 0,5 km/h (0 Bft) NO 45 14,9 C 20,1 C 0,0 km/h (0 Bft)
20.07.2019 07:48 24,2 C 20,0 C 26,5 C 20,7 C 52 % 72 % 63 % 1017,4 hPa 0,0 l/m 0,5 km/h (0 Bft) O-NO 67 14,8 C 20,0 C 0,0 km/h (0 Bft)
20.07.2019 07:46 24,2 C 19,9 C 26,0 C 20,8 C 52 % 73 % 64 % 1017,4 hPa 0,0 l/m 0,5 km/h (0 Bft) NO 45 14,9 C 19,9 C 5,8 km/h (2 Bft)
20.07.2019 07:44 24,2 C 19,9 C 25,4 C 20,7 C 52 % 73 % 63 % 1017,2 hPa 0,0 l/m 0,6 km/h (0 Bft) O-NO 67 14,9 C 19,9 C 5,8 km/h (2 Bft)
20.07.2019 07:42 24,1 C 19,8 C 24,5 C 20,7 C 51 % 73 % 63 % 1017,2 hPa 0,0 l/m 0,5 km/h (0 Bft) O-SO 112 14,8 C 19,8 C 2,9 km/h (1 Bft)
20.07.2019 07:40 24,1 C 19,9 C 24,2 C 20,7 C 51 % 73 % 63 % 1017,2 hPa 0,0 l/m 0,6 km/h (0 Bft) N-NW 337 14,9 C 19,9 C 6,0 km/h (2 Bft)
20.07.2019 07:38 24,1 C 19,9 C 24,6 C 20,7 C 51 % 74 % 63 % 1017,2 hPa 0,0 l/m 0,6 km/h (0 Bft) O-SO 112 15,1 C 19,9 C 6,0 km/h (2 Bft)
20.07.2019 07:36 24,1 C 19,8 C 24,1 C 20,7 C 51 % 74 % 63 % 1017,2 hPa 0,0 l/m 0,5 km/h (0 Bft) NW 315 15,0 C 19,8 C 0,0 km/h (0 Bft)
20.07.2019 07:34 24,0 C 19,6 C 24,1 C 20,7 C 51 % 74 % 63 % 1017,2 hPa 0,0 l/m 0,3 km/h (0 Bft) W-SW 247 14,8 C 19,6 C 3,4 km/h (1 Bft)
20.07.2019 07:32 24,0 C 19,5 C 23,4 C 20,7 C 51 % 74 % 64 % 1017,2 hPa 0,0 l/m 0,5 km/h (0 Bft) O-SO 112 14,7 C 19,5 C 4,8 km/h (1 Bft)
20.07.2019 07:30 24,0 C 19,2 C 23,2 C 20,7 C 51 % 74 % 63 % 1017,2 hPa 0,0 l/m 0,5 km/h (0 Bft) N-NO 22 14,4 C 19,2 C 4,8 km/h (1 Bft)
20.07.2019 07:28 24,0 C 19,2 C 23,1 C 20,7 C 51 % 75 % 63 % 1017,2 hPa 0,0 l/m 0,6 km/h (0 Bft) O-SO 112 14,7 C 19,2 C 0,0 km/h (0 Bft)
20.07.2019 07:26 24,0 C 19,1 C 22,6 C 20,7 C 51 % 75 % 63 % 1017,2 hPa 0,0 l/m 1,0 km/h (0 Bft) NW 315 14,6 C 19,1 C 0,0 km/h (0 Bft)
20.07.2019 07:24 24,0 C 19,2 C 21,9 C 20,7 C 51 % 75 % 63 % 1017,2 hPa 0,0 l/m 1,0 km/h (0 Bft) W-NW 292 14,7 C 19,2 C 7,7 km/h (2 Bft)
20.07.2019 07:22 23,9 C 19,2 C 21,9 C 20,7 C 51 % 74 % 63 % 1017,2 hPa 0,0 l/m 1,0 km/h (0 Bft) O-NO 67 14,4 C 19,2 C 6,0 km/h (2 Bft)
20.07.2019 07:20 23,9 C 19,2 C 22,1 C 20,7 C 51 % 76 % 63 % 1017,2 hPa 0,0 l/m 0,5 km/h (0 Bft) O-NO 67 14,9 C 19,2 C 4,8 km/h (1 Bft)
20.07.2019 07:18 23,9 C 19,2 C 21,7 C 20,7 C 51 % 75 % 63 % 1017,2 hPa 0,0 l/m 0,5 km/h (0 Bft) NO 45 14,7 C 19,2 C 4,8 km/h (1 Bft)
20.07.2019 07:16 23,9 C 19,0 C 22,0 C 20,7 C 51 % 75 % 63 % 1017,2 hPa 0,0 l/m 0,2 km/h (0 Bft) O-NO 67 14,5 C 19,0 C 2,9 km/h (1 Bft)
20.07.2019 07:14 23,9 C 18,9 C 21,8 C 20,7 C 51 % 77 % 63 % 1017,2 hPa 0,0 l/m 0,0 km/h (0 Bft) S-SO 157 14,8 C 18,9 C 0,0 km/h (0 Bft)
20.07.2019 07:12 23,9 C 18,8 C 20,8 C 20,7 C 51 % 79 % 63 % 1017,2 hPa 0,0 l/m 0,0 km/h (0 Bft) W 270 15,1 C 18,8 C 0,0 km/h (0 Bft)
20.07.2019 07:10 23,9 C 18,6 C 19,8 C 20,7 C 51 % 78 % 63 % 1017,2 hPa 0,0 l/m 0,0 km/h (0 Bft) W-NW 292 14,7 C 18,6 C 0,0 km/h (0 Bft)
20.07.2019 07:08 23,9 C 18,4 C 19,4 C 20,7 C 51 % 78 % 63 % 1017,2 hPa 0,0 l/m 0,0 km/h (0 Bft) NW 315 14,5 C 18,4 C 0,0 km/h (0 Bft)
20.07.2019 07:06 23,8 C 18,3 C 19,0 C 20,7 C 51 % 79 % 63 % 1017,2 hPa 0,0 l/m 0,0 km/h (0 Bft) O-NO 67 14,6 C 18,3 C 0,0 km/h (0 Bft)
20.07.2019 07:04 23,8 C 18,1 C 18,6 C 20,7 C 51 % 79 % 63 % 1016,9 hPa 0,0 l/m 0,0 km/h (0 Bft) NW 315 14,4 C 18,1 C 0,0 km/h (0 Bft)
20.07.2019 07:02 23,8 C 18,1 C 18,2 C 20,7 C 51 % 79 % 63 % 1016,9 hPa 0,0 l/m 0,0 km/h (0 Bft) NW 315 14,4 C 18,1 C 0,0 km/h (0 Bft)
20.07.2019 07:00 23,8 C 18,1 C 18,1 C 20,7 C 51 % 79 % 63 % 1016,9 hPa 0,0 l/m 0,0 km/h (0 Bft) NW 315 14,4 C 18,1 C 0,0 km/h (0 Bft)
20.07.2019 06:58 23,9 C 18,1 C 18,1 C 20,7 C 51 % 79 % 63 % 1016,9 hPa 0,0 l/m 0,0 km/h (0 Bft) NW 315 14,4 C 18,1 C 0,0 km/h (0 Bft)
20.07.2019 06:56 23,8 C 18,1 C 18,0 C 20,7 C 51 % 79 % 63 % 1016,9 hPa 0,0 l/m 0,0 km/h (0 Bft) NW 315 14,4 C 18,1 C 0,0 km/h (0 Bft)
20.07.2019 06:54 23,9 C 18,0 C 17,9 C 20,7 C 51 % 80 % 63 % 1016,9 hPa 0,0 l/m 0,0 km/h (0 Bft) NW 315 14,5 C 18,0 C 0,0 km/h (0 Bft)
20.07.2019 06:52 23,8 C 17,9 C 17,9 C 20,7 C 51 % 80 % 63 % 1016,9 hPa 0,0 l/m 0,0 km/h (0 Bft) NO 45 14,4 C 17,9 C 0,0 km/h (0 Bft)
20.07.2019 06:50 23,8 C 18,0 C 17,7 C 20,7 C 51 % 80 % 63 % 1016,9 hPa 0,0 l/m 0,0 km/h (0 Bft) NW 315 14,5 C 18,0 C 0,0 km/h (0 Bft)
20.07.2019 06:48 23,8 C 17,9 C 17,7 C 20,7 C 51 % 81 % 63 % 1016,9 hPa 0,0 l/m 0,2 km/h (0 Bft) W-NW 292 14,6 C 17,9 C 0,0 km/h (0 Bft)
20.07.2019 06:46 23,8 C 17,8 C 17,6 C 20,7 C 51 % 81 % 63 % 1016,9 hPa 0,0 l/m 0,2 km/h (0 Bft) NW 315 14,5 C 17,8 C 0,0 km/h (0 Bft)
20.07.2019 06:44 23,8 C 17,6 C 17,5 C 20,7 C 51 % 81 % 63 % 1017,0 hPa 0,0 l/m 0,2 km/h (0 Bft) N-NW 337 14,3 C 17,6 C 0,0 km/h (0 Bft)
20.07.2019 06:42 23,8 C 17,5 C 17,3 C 20,7 C 51 % 81 % 63 % 1017,0 hPa 0,0 l/m 0,2 km/h (0 Bft) NW 315 14,2 C 17,5 C 0,0 km/h (0 Bft)
20.07.2019 06:40 23,8 C 17,2 C 17,2 C 20,7 C 51 % 82 % 63 % 1017,0 hPa 0,0 l/m 0,2 km/h (0 Bft) N-NO 22 14,1 C 17,2 C 0,0 km/h (0 Bft)
20.07.2019 06:38 23,8 C 17,0 C 17,1 C 20,7 C 51 % 83 % 63 % 1017,0 hPa 0,0 l/m 0,0 km/h (0 Bft) NW 315 14,1 C 17,0 C 0,0 km/h (0 Bft)
20.07.2019 06:36 23,9 C 16,8 C 17,0 C 20,7 C 51 % 83 % 63 % 1017,0 hPa 0,0 l/m 0,0 km/h (0 Bft) NW 315 13,9 C 16,8 C 0,0 km/h (0 Bft)
20.07.2019 06:34 23,8 C 16,6 C 17,0 C 20,7 C 51 % 82 % 63 % 1017,0 hPa 0,0 l/m 0,0 km/h (0 Bft) W-NW 292 13,5 C 16,6 C 0,0 km/h (0 Bft)
20.07.2019 06:32 23,9 C 16,6 C 16,9 C 20,7 C 51 % 82 % 63 % 1017,0 hPa 0,0 l/m 0,0 km/h (0 Bft) W-NW 292 13,5 C 16,6 C 0,0 km/h (0 Bft)
20.07.2019 06:30 23,9 C 16,5 C 16,8 C 20,7 C 51 % 82 % 63 % 1017,0 hPa 0,0 l/m 0,0 km/h (0 Bft) NO 45 13,4 C 16,5 C 0,0 km/h (0 Bft)
20.07.2019 06:28 23,9 C 16,5 C 16,7 C 20,7 C 51 % 82 % 63 % 1017,0 hPa 0,0 l/m 0,2 km/h (0 Bft) N-NW 337 13,4 C 16,5 C 0,0 km/h (0 Bft)
20.07.2019 06:26 23,9 C 16,4 C 16,6 C 20,7 C 51 % 82 % 63 % 1017,0 hPa 0,0 l/m 0,2 km/h (0 Bft) NW 315 13,3 C 16,4 C 0,0 km/h (0 Bft)
20.07.2019 06:24 23,9 C 16,4 C 16,6 C 20,7 C 51 % 82 % 63 % 1016,9 hPa 0,0 l/m 0,2 km/h (0 Bft) N 360 13,3 C 16,4 C 0,0 km/h (0 Bft)
20.07.2019 06:22 23,9 C 16,3 C 16,5 C 20,7 C 51 % 82 % 63 % 1016,9 hPa 0,0 l/m 0,2 km/h (0 Bft) NW 315 13,2 C 16,3 C 0,0 km/h (0 Bft)
20.07.2019 06:20 23,9 C 16,3 C 16,5 C 20,7 C 51 % 82 % 63 % 1016,9 hPa 0,0 l/m 0,2 km/h (0 Bft) NW 315 13,2 C 16,3 C 2,4 km/h (1 Bft)
20.07.2019 06:18 23,9 C 16,2 C 16,5 C 20,7 C 51 % 82 % 63 % 1016,9 hPa 0,0 l/m 0,3 km/h (0 Bft) NW 315 13,1 C 16,2 C 2,4 km/h (1 Bft)
20.07.2019 06:16 23,9 C 16,2 C 16,3 C 20,7 C 51 % 82 % 63 % 1016,9 hPa 0,0 l/m 0,3 km/h (0 Bft) O-NO 67 13,1 C 16,2 C 0,0 km/h (0 Bft)
20.07.2019 06:14 24,0 C 16,1 C 16,1 C 20,6 C 51 % 82 % 63 % 1016,9 hPa 0,0 l/m 0,3 km/h (0 Bft) S 180 13,0 C 16,1 C 0,0 km/h (0 Bft)
20.07.2019 06:12 24,0 C 15,9 C 16,1 C 20,6 C 51 % 83 % 63 % 1016,9 hPa 0,0 l/m 0,2 km/h (0 Bft) NW 315 13,0 C 15,9 C 0,0 km/h (0 Bft)
20.07.2019 06:10 24,0 C 15,9 C 16,1 C 20,6 C 51 % 83 % 63 % 1016,9 hPa 0,0 l/m 0,2 km/h (0 Bft) NW 315 13,0 C 15,9 C 0,0 km/h (0 Bft)
20.07.2019 06:08 24,0 C 15,9 C 16,1 C 20,6 C 51 % 83 % 63 % 1016,9 hPa 0,0 l/m 0,2 km/h (0 Bft) NW 315 13,0 C 15,9 C 0,0 km/h (0 Bft)
20.07.2019 06:06 24,0 C 15,9 C 16,1 C 20,6 C 51 % 83 % 63 % 1016,9 hPa 0,0 l/m 0,2 km/h (0 Bft) NW 315 13,0 C 15,9 C 0,0 km/h (0 Bft)
20.07.2019 06:02 24,0 C 15,9 C 16,1 C 20,6 C 51 % 83 % 63 % 1017,2 hPa 0,0 l/m 0,2 km/h (0 Bft) NW 315 13,0 C 15,9 C 0,0 km/h (0 Bft)
20.07.2019 06:00 24,0 C 15,9 C 16,0 C 20,6 C 51 % 83 % 63 % 1017,2 hPa 0,0 l/m 0,3 km/h (0 Bft) NW 315 13,0 C 15,9 C 0,0 km/h (0 Bft)
20.07.2019 05:58 24,0 C 15,8 C 15,9 C 20,6 C 51 % 83 % 63 % 1017,2 hPa 0,0 l/m 0,3 km/h (0 Bft) N-NW 337 12,9 C 15,8 C 0,0 km/h (0 Bft)
20.07.2019 05:56 24,0 C 15,8 C 15,9 C 20,6 C 51 % 83 % 63 % 1017,2 hPa 0,0 l/m 0,3 km/h (0 Bft) NW 315 12,9 C 15,8 C 2,7 km/h (1 Bft)
20.07.2019 05:54 24,0 C 15,8 C 15,8 C 20,6 C 51 % 83 % 63 % 1017,2 hPa 0,0 l/m 0,2 km/h (0 Bft) NW 315 12,9 C 15,8 C 2,7 km/h (1 Bft)
20.07.2019 05:52 24,1 C 15,8 C 15,8 C 21,7 C 51 % 83 % 60 % 1017,2 hPa 0,0 l/m 0,2 km/h (0 Bft) NW 315 12,9 C 15,8 C 0,0 km/h (0 Bft)
20.07.2019 05:50 24,0 C 15,8 C 15,8 C 21,7 C 51 % 83 % 60 % 1017,2 hPa 0,0 l/m 0,2 km/h (0 Bft) NW 315 12,9 C 15,8 C 0,0 km/h (0 Bft)
20.07.2019 05:48 24,1 C 15,8 C 15,8 C 21,7 C 51 % 83 % 60 % 1017,2 hPa 0,0 l/m 0,2 km/h (0 Bft) NW 315 12,9 C 15,8 C 0,0 km/h (0 Bft)
20.07.2019 05:46 24,1 C 15,8 C 15,8 C 21,7 C 51 % 83 % 60 % 1017,2 hPa 0,0 l/m 0,3 km/h (0 Bft) W-NW 292 12,9 C 15,8 C 0,0 km/h (0 Bft)
20.07.2019 05:44 24,1 C 15,8 C 15,8 C 21,7 C 51 % 83 % 60 % 1017,1 hPa 0,0 l/m 0,3 km/h (0 Bft) NW 315 12,9 C 15,8 C 0,0 km/h (0 Bft)
20.07.2019 05:42 24,1 C 15,7 C 15,7 C 21,7 C 51 % 83 % 60 % 1017,1 hPa 0,0 l/m 0,3 km/h (0 Bft) W-NW 292 12,8 C 15,7 C 0,0 km/h (0 Bft)
20.07.2019 05:40 24,1 C 15,7 C 15,6 C 21,7 C 51 % 83 % 60 % 1017,1 hPa 0,0 l/m 0,3 km/h (0 Bft) NW 315 12,8 C 15,7 C 2,9 km/h (1 Bft)
20.07.2019 05:38 24,1 C 15,7 C 15,6 C 21,7 C 51 % 83 % 60 % 1017,1 hPa 0,0 l/m 0,3 km/h (0 Bft) NW 315 12,8 C 15,7 C 2,9 km/h (1 Bft)
20.07.2019 05:36 24,2 C 15,7 C 15,6 C 21,7 C 51 % 83 % 60 % 1017,1 hPa 0,0 l/m 0,2 km/h (0 Bft) NW 315 12,8 C 15,7 C 2,9 km/h (1 Bft)
20.07.2019 05:34 24,2 C 15,7 C 15,6 C 21,7 C 52 % 83 % 60 % 1017,1 hPa 0,0 l/m 0,0 km/h (0 Bft) NW 315 12,8 C 15,7 C 0,0 km/h (0 Bft)
20.07.2019 05:32 24,2 C 15,7 C 15,6 C 21,7 C 52 % 83 % 60 % 1017,1 hPa 0,0 l/m 0,0 km/h (0 Bft) NW 315 12,8 C 15,7 C 0,0 km/h (0 Bft)
20.07.2019 05:30 24,2 C 15,8 C 15,6 C 21,7 C 52 % 83 % 60 % 1017,1 hPa 0,0 l/m 0,0 km/h (0 Bft) NW 315 12,9 C 15,8 C 0,0 km/h (0 Bft)
20.07.2019 05:28 24,2 C 15,8 C 15,6 C 21,7 C 52 % 83 % 60 % 1017,1 hPa 0,0 l/m 0,0 km/h (0 Bft) NW 315 12,9 C 15,8 C 0,0 km/h (0 Bft)
20.07.2019 05:26 24,2 C 15,8 C 15,6 C 21,7 C 52 % 83 % 60 % 1017,1 hPa 0,0 l/m 0,0 km/h (0 Bft) NW 315 12,9 C 15,8 C 0,0 km/h (0 Bft)
20.07.2019 05:24 24,2 C 15,7 C 15,6 C 21,7 C 52 % 83 % 60 % 1017,2 hPa 0,0 l/m 0,0 km/h (0 Bft) NW 315 12,8 C 15,7 C 0,0 km/h (0 Bft)
20.07.2019 05:22 24,2 C 15,7 C 15,6 C 21,7 C 51 % 83 % 60 % 1017,2 hPa 0,0 l/m 0,0 km/h (0 Bft) N 360 12,8 C 15,7 C 0,0 km/h (0 Bft)
20.07.2019 05:20 24,2 C 15,7 C 15,7 C 21,7 C 52 % 83 % 60 % 1017,2 hPa 0,0 l/m 0,0 km/h (0 Bft) NW 315 12,8 C 15,7 C 0,0 km/h (0 Bft)
20.07.2019 05:18 24,2 C 15,7 C 15,6 C 21,7 C 52 % 83 % 60 % 1017,2 hPa 0,0 l/m 0,0 km/h (0 Bft) NW 315 12,8 C 15,7 C 0,0 km/h (0 Bft)
20.07.2019 05:16 24,2 C 15,7 C 15,6 C 21,7 C 52 % 83 % 60 % 1017,2 hPa 0,0 l/m 0,0 km/h (0 Bft) S-SO 157 12,8 C 15,7 C 0,0 km/h (0 Bft)
20.07.2019 05:14 24,3 C 15,7 C 15,5 C 21,7 C 51 % 83 % 60 % 1017,2 hPa 0,0 l/m 0,2 km/h (0 Bft) S 180 12,8 C 15,7 C 0,0 km/h (0 Bft)
20.07.2019 05:12 24,3 C 15,7 C 15,5 C 21,7 C 52 % 82 % 60 % 1017,2 hPa 0,0 l/m 0,2 km/h (0 Bft) NW 315 12,6 C 15,7 C 0,0 km/h (0 Bft)
20.07.2019 05:10 24,2 C 15,7 C 15,5 C 21,7 C 51 % 82 % 60 % 1017,2 hPa 0,0 l/m 0,2 km/h (0 Bft) W-NW 292 12,6 C 15,7 C 0,0 km/h (0 Bft)
20.07.2019 05:08 24,2 C 15,7 C 15,5 C 21,7 C 52 % 82 % 60 % 1017,2 hPa 0,0 l/m 0,2 km/h (0 Bft) NW 315 12,6 C 15,7 C 0,0 km/h (0 Bft)
20.07.2019 05:06 24,2 C 15,8 C 15,5 C 21,7 C 52 % 82 % 60 % 1017,2 hPa 0,0 l/m 0,3 km/h (0 Bft) NW 315 12,7 C 15,8 C 0,0 km/h (0 Bft)
20.07.2019 05:04 24,4 C 15,8 C 15,5 C 21,7 C 52 % 82 % 60 % 1017,1 hPa 0,0 l/m 0,6 km/h (0 Bft) NW 315 12,7 C 15,8 C 0,0 km/h (0 Bft)
20.07.2019 05:02 24,4 C 15,8 C 15,5 C 21,7 C 51 % 82 % 60 % 1017,1 hPa 0,0 l/m 1,0 km/h (0 Bft) W-NW 292 12,7 C 15,8 C 0,0 km/h (0 Bft)
20.07.2019 05:00 24,4 C 15,8 C 15,5 C 21,7 C 52 % 82 % 60 % 1017,1 hPa 0,0 l/m 1,0 km/h (0 Bft) W-NW 292 12,7 C 15,8 C 2,7 km/h (1 Bft)
20.07.2019 04:58 24,4 C 15,9 C 15,5 C 21,7 C 51 % 82 % 60 % 1017,1 hPa 0,0 l/m 1,3 km/h (1 Bft) N-NW 337 12,8 C 15,9 C 3,4 km/h (1 Bft)
20.07.2019 04:56 24,4 C 15,9 C 15,5 C 21,7 C 52 % 82 % 60 % 1017,1 hPa 0,0 l/m 1,1 km/h (1 Bft) NW 315 12,8 C 15,9 C 3,9 km/h (1 Bft)
20.07.2019 04:54 24,4 C 15,9 C 15,5 C 21,7 C 52 % 82 % 60 % 1017,1 hPa 0,0 l/m 1,0 km/h (0 Bft) NW 315 12,8 C 15,9 C 4,3 km/h (1 Bft)
20.07.2019 04:52 24,4 C 15,9 C 15,5 C 21,7 C 52 % 82 % 60 % 1017,1 hPa 0,0 l/m 0,8 km/h (0 Bft) NW 315 12,8 C 15,9 C 4,3 km/h (1 Bft)
20.07.2019 04:50 24,4 C 16,0 C 15,7 C 21,7 C 52 % 81 % 60 % 1017,1 hPa 0,0 l/m 0,5 km/h (0 Bft) NW 315 12,7 C 16,0 C 2,9 km/h (1 Bft)
20.07.2019 04:48 24,4 C 16,0 C 15,7 C 21,7 C 52 % 81 % 60 % 1017,1 hPa 0,0 l/m 0,5 km/h (0 Bft) NW 315 12,7 C 16,0 C 2,9 km/h (1 Bft)
20.07.2019 04:46 24,4 C 16,0 C 15,8 C 21,7 C 52 % 81 % 60 % 1017,1 hPa 0,0 l/m 0,5 km/h (0 Bft) NW 315 12,7 C 16,0 C 0,0 km/h (0 Bft)
20.07.2019 04:44 24,4 C 16,1 C 15,7 C 21,7 C 52 % 81 % 60 % 1017,2 hPa 0,0 l/m 0,5 km/h (0 Bft) N-NW 337 12,8 C 16,1 C 0,0 km/h (0 Bft)
20.07.2019 04:42 24,5 C 16,1 C 15,7 C 21,7 C 52 % 81 % 60 % 1017,2 hPa 0,0 l/m 0,5 km/h (0 Bft) N-NW 337 12,8 C 16,1 C 3,4 km/h (1 Bft)
20.07.2019 04:40 24,5 C 16,1 C 15,7 C 21,7 C 52 % 81 % 60 % 1017,2 hPa 0,0 l/m 0,5 km/h (0 Bft) NW 315 12,8 C 16,1 C 3,6 km/h (1 Bft)
20.07.2019 04:38 24,5 C 16,1 C 15,8 C 21,7 C 52 % 81 % 60 % 1017,2 hPa 0,0 l/m 0,5 km/h (0 Bft) NW 315 12,8 C 16,1 C 3,6 km/h (1 Bft)
20.07.2019 04:36 24,5 C 16,1 C 15,9 C 21,7 C 52 % 81 % 60 % 1017,2 hPa 0,0 l/m 0,3 km/h (0 Bft) NW 315 12,8 C 16,1 C 2,7 km/h (1 Bft)
20.07.2019 04:34 24,5 C 16,1 C 15,9 C 21,7 C 51 % 81 % 60 % 1017,2 hPa 0,0 l/m 0,0 km/h (0 Bft) NW 315 12,8 C 16,1 C 2,7 km/h (1 Bft)
20.07.2019 04:32 24,5 C 16,2 C 15,8 C 21,7 C 52 % 81 % 60 % 1017,2 hPa 0,0 l/m 0,0 km/h (0 Bft) W-NW 292 12,9 C 16,2 C 0,0 km/h (0 Bft)
20.07.2019 04:30 24,5 C 16,2 C 15,8 C 21,7 C 52 % 81 % 60 % 1017,2 hPa 0,0 l/m 0,0 km/h (0 Bft) W-NW 292 12,9 C 16,2 C 0,0 km/h (0 Bft)
20.07.2019 04:28 24,5 C 16,2 C 15,9 C 21,7 C 52 % 81 % 60 % 1017,2 hPa 0,0 l/m 0,0 km/h (0 Bft) W-NW 292 12,9 C 16,2 C 0,0 km/h (0 Bft)
20.07.2019 04:26 24,6 C 16,2 C 15,9 C 21,7 C 52 % 81 % 60 % 1017,2 hPa 0,0 l/m 0,0 km/h (0 Bft) N-NW 337 12,9 C 16,2 C 0,0 km/h (0 Bft)
20.07.2019 04:24 24,6 C 16,2 C 15,9 C 21,7 C 52 % 81 % 60 % 1017,2 hPa 0,0 l/m 0,0 km/h (0 Bft) NW 315 12,9 C 16,2 C 0,0 km/h (0 Bft)
20.07.2019 04:22 24,6 C 16,2 C 15,9 C 21,7 C 52 % 81 % 60 % 1017,2 hPa 0,0 l/m 0,0 km/h (0 Bft) NW 315 12,9 C 16,2 C 2,9 km/h (1 Bft)
20.07.2019 04:20 24,6 C 16,2 C 15,9 C 21,7 C 52 % 81 % 60 % 1017,2 hPa 0,0 l/m 0,2 km/h (0 Bft) NW 315 12,9 C 16,2 C 2,9 km/h (1 Bft)
20.07.2019 04:18 24,6 C 16,2 C 15,9 C 21,7 C 52 % 81 % 60 % 1017,2 hPa 0,0 l/m 0,2 km/h (0 Bft) N-NW 337 12,9 C 16,2 C 0,0 km/h (0 Bft)
20.07.2019 04:16 24,6 C 16,2 C 15,9 C 21,7 C 52 % 81 % 60 % 1017,2 hPa 0,0 l/m 0,2 km/h (0 Bft) NW 315 12,9 C 16,2 C 0,0 km/h (0 Bft)
20.07.2019 04:14 24,6 C 16,2 C 15,9 C 21,7 C 52 % 80 % 60 % 1017,2 hPa 0,0 l/m 0,2 km/h (0 Bft) S 180 12,7 C 16,2 C 0,0 km/h (0 Bft)
20.07.2019 04:12 24,6 C 16,2 C 15,9 C 21,7 C 52 % 80 % 60 % 1017,2 hPa 0,0 l/m 0,2 km/h (0 Bft) SO 135 12,7 C 16,2 C 2,4 km/h (1 Bft)
20.07.2019 04:10 24,6 C 16,1 C 15,8 C 21,7 C 52 % 80 % 60 % 1017,2 hPa 0,0 l/m 0,2 km/h (0 Bft) S 180 12,6 C 16,1 C 2,4 km/h (1 Bft)
20.07.2019 04:08 24,7 C 16,1 C 15,9 C 21,7 C 52 % 80 % 60 % 1017,2 hPa 0,0 l/m 0,0 km/h (0 Bft) SW 225 12,6 C 16,1 C 0,0 km/h (0 Bft)
20.07.2019 04:06 24,7 C 16,2 C 15,8 C 21,7 C 52 % 80 % 60 % 1017,2 hPa 0,0 l/m 0,0 km/h (0 Bft) W 270 12,7 C 16,2 C 0,0 km/h (0 Bft)
20.07.2019 04:04 24,7 C 16,2 C 15,7 C 21,7 C 52 % 80 % 60 % 1017,6 hPa 0,0 l/m 0,0 km/h (0 Bft) S-SW 202 12,7 C 16,2 C 0,0 km/h (0 Bft)
20.07.2019 04:02 24,7 C 16,2 C 15,8 C 21,7 C 52 % 80 % 60 % 1017,6 hPa 0,0 l/m 0,0 km/h (0 Bft) NW 315 12,7 C 16,2 C 0,0 km/h (0 Bft)
20.07.2019 04:00 24,7 C 16,2 C 15,8 C 21,7 C 52 % 80 % 60 % 1017,6 hPa 0,0 l/m 0,0 km/h (0 Bft) NW 315 12,7 C 16,2 C 0,0 km/h (0 Bft)
20.07.2019 03:58 24,7 C 16,3 C 15,8 C 21,7 C 52 % 80 % 60 % 1017,6 hPa 0,0 l/m 0,0 km/h (0 Bft) W-NW 292 12,8 C 16,3 C 0,0 km/h (0 Bft)
20.07.2019 03:56 24,7 C 16,3 C 15,8 C 21,7 C 52 % 80 % 60 % 1017,6 hPa 0,0 l/m 0,0 km/h (0 Bft) W-NW 292 12,8 C 16,3 C 0,0 km/h (0 Bft)
20.07.2019 03:54 24,8 C 16,4 C 16,0 C 21,7 C 52 % 79 % 60 % 1017,6 hPa 0,0 l/m 0,0 km/h (0 Bft) NW 315 12,7 C 16,4 C 0,0 km/h (0 Bft)
20.07.2019 03:52 24,8 C 16,4 C 16,0 C 21,8 C 52 % 79 % 60 % 1017,6 hPa 0,0 l/m 0,2 km/h (0 Bft) W 270 12,7 C 16,4 C 0,0 km/h (0 Bft)
20.07.2019 03:50 24,8 C 16,4 C 15,9 C 21,8 C 51 % 79 % 60 % 1017,6 hPa 0,0 l/m 0,3 km/h (0 Bft) W 270 12,7 C 16,4 C 0,0 km/h (0 Bft)
20.07.2019 03:48 24,8 C 16,5 C 15,8 C 21,8 C 52 % 79 % 60 % 1017,6 hPa 0,0 l/m 0,3 km/h (0 Bft) W 270 12,8 C 16,5 C 0,0 km/h (0 Bft)
20.07.2019 03:46 24,8 C 16,5 C 15,8 C 21,8 C 51 % 79 % 60 % 1017,6 hPa 0,0 l/m 0,3 km/h (0 Bft) NW 315 12,8 C 16,5 C 0,0 km/h (0 Bft)
20.07.2019 03:44 24,8 C 16,5 C 15,7 C 21,8 C 52 % 79 % 60 % 1017,5 hPa 0,0 l/m 0,3 km/h (0 Bft) NW 315 12,8 C 16,5 C 4,3 km/h (1 Bft)
20.07.2019 03:42 24,8 C 16,5 C 15,8 C 21,8 C 52 % 79 % 61 % 1017,5 hPa 0,0 l/m 0,3 km/h (0 Bft) NW 315 12,8 C 16,5 C 3,1 km/h (1 Bft)
20.07.2019 03:40 24,8 C 16,6 C 15,9 C 21,8 C 51 % 79 % 61 % 1017,5 hPa 0,0 l/m 0,0 km/h (0 Bft) NW 315 12,9 C 16,6 C 3,1 km/h (1 Bft)
20.07.2019 03:38 24,8 C 16,6 C 15,9 C 18,3 C 51 % 79 % 63 % 1017,5 hPa 0,0 l/m 0,0 km/h (0 Bft) NW 315 12,9 C 16,6 C 0,0 km/h (0 Bft)
20.07.2019 03:36 24,8 C 16,7 C 15,9 C 18,3 C 51 % 79 % 63 % 1017,5 hPa 0,0 l/m 0,0 km/h (0 Bft) NW 315 13,0 C 16,7 C 0,0 km/h (0 Bft)
20.07.2019 03:34 24,8 C 16,8 C 16,0 C 18,3 C 51 % 79 % 63 % 1017,5 hPa 0,0 l/m 0,0 km/h (0 Bft) NW 315 13,1 C 16,8 C 0,0 km/h (0 Bft)
20.07.2019 03:32 24,8 C 16,8 C 16,0 C 18,3 C 51 % 79 % 63 % 1017,5 hPa 0,0 l/m 0,0 km/h (0 Bft) N-NW 337 13,1 C 16,8 C 0,0 km/h (0 Bft)
20.07.2019 03:30 24,9 C 16,8 C 16,2 C 18,3 C 51 % 79 % 63 % 1017,5 hPa 0,0 l/m 0,0 km/h (0 Bft) W-NW 292 13,1 C 16,8 C 0,0 km/h (0 Bft)
20.07.2019 03:28 24,9 C 16,8 C 16,2 C 18,3 C 51 % 79 % 63 % 1017,5 hPa 0,0 l/m 0,0 km/h (0 Bft) NW 315 13,1 C 16,8 C 0,0 km/h (0 Bft)
20.07.2019 03:26 24,9 C 16,8 C 16,2 C 18,3 C 51 % 79 % 63 % 1017,5 hPa 0,0 l/m 0,0 km/h (0 Bft) S-SO 157 13,1 C 16,8 C 0,0 km/h (0 Bft)
20.07.2019 03:24 24,9 C 16,8 C 16,2 C 18,3 C 51 % 79 % 63 % 1017,7 hPa 0,0 l/m 0,0 km/h (0 Bft) O-SO 112 13,1 C 16,8 C 0,0 km/h (0 Bft)
20.07.2019 03:22 25,0 C 16,7 C 16,2 C 18,3 C 51 % 78 % 63 % 1017,7 hPa 0,0 l/m 0,0 km/h (0 Bft) O-SO 112 12,8 C 16,7 C 0,0 km/h (0 Bft)
20.07.2019 03:20 25,0 C 16,7 C 16,2 C 18,3 C 51 % 78 % 63 % 1017,7 hPa 0,0 l/m 0,0 km/h (0 Bft) S-SO 157 12,8 C 16,7 C 0,0 km/h (0 Bft)
20.07.2019 03:18 25,0 C 16,6 C 16,2 C 18,3 C 51 % 78 % 63 % 1017,7 hPa 0,0 l/m 0,0 km/h (0 Bft) SW 225 12,7 C 16,6 C 0,0 km/h (0 Bft)
20.07.2019 03:16 25,0 C 16,6 C 16,1 C 18,3 C 51 % 78 % 63 % 1017,7 hPa 0,1 l/m 0,0 km/h (0 Bft) S-SO 157 12,7 C 16,6 C 0,0 km/h (0 Bft)
20.07.2019 03:14 25,0 C 16,7 C 16,0 C 18,3 C 51 % 78 % 63 % 1017,7 hPa 0,0 l/m 0,0 km/h (0 Bft) NW 315 12,8 C 16,7 C 0,0 km/h (0 Bft)
20.07.2019 03:12 25,0 C 16,9 C 16,2 C 18,3 C 51 % 78 % 63 % 1017,7 hPa 0,0 l/m 0,0 km/h (0 Bft) NW 315 13,0 C 16,9 C 0,0 km/h (0 Bft)
20.07.2019 03:10 25,0 C 16,9 C 16,2 C 18,3 C 51 % 78 % 63 % 1017,7 hPa 0,0 l/m 0,0 km/h (0 Bft) NW 315 13,0 C 16,9 C 0,0 km/h (0 Bft)
20.07.2019 03:08 25,0 C 16,9 C 16,2 C 18,3 C 51 % 78 % 63 % 1017,7 hPa 0,0 l/m 0,0 km/h (0 Bft) NW 315 13,0 C 16,9 C 0,0 km/h (0 Bft)
20.07.2019 03:06 25,0 C 16,9 C 16,2 C 18,3 C 51 % 78 % 63 % 1017,7 hPa 0,0 l/m 0,0 km/h (0 Bft) NW 315 13,0 C 16,9 C 0,0 km/h (0 Bft)
20.07.2019 03:04 25,0 C 16,9 C 16,2 C 18,3 C 51 % 78 % 63 % 1017,7 hPa 0,0 l/m 0,0 km/h (0 Bft) NW 315 13,0 C 16,9 C 0,0 km/h (0 Bft)
20.07.2019 03:02 25,0 C 16,9 C 16,2 C 18,3 C 51 % 78 % 63 % 1017,7 hPa 0,0 l/m 0,0 km/h (0 Bft) NW 315 13,0 C 16,9 C 0,0 km/h (0 Bft)
20.07.2019 03:00 25,0 C 17,0 C 16,2 C 18,3 C 51 % 78 % 63 % 1017,7 hPa 0,0 l/m 0,0 km/h (0 Bft) W-SW 247 13,1 C 17,0 C 0,0 km/h (0 Bft)
20.07.2019 02:58 25,1 C 17,0 C 16,2 C 18,3 C 51 % 78 % 63 % 1017,7 hPa 0,0 l/m 0,0 km/h (0 Bft) W-SW 247 13,1 C 17,0 C 0,0 km/h (0 Bft)
20.07.2019 02:56 25,1 C 17,0 C 16,3 C 18,3 C 51 % 78 % 63 % 1017,7 hPa 0,0 l/m 0,0 km/h (0 Bft) W-SW 247 13,1 C 17,0 C 0,0 km/h (0 Bft)
20.07.2019 02:54 25,1 C 17,1 C 16,3 C 18,3 C 51 % 78 % 63 % 1017,7 hPa 0,0 l/m 0,0 km/h (0 Bft) S-SO 157 13,2 C 17,1 C 0,0 km/h (0 Bft)
20.07.2019 02:52 25,1 C 17,1 C 16,3 C 18,3 C 51 % 78 % 63 % 1017,7 hPa 0,0 l/m 0,0 km/h (0 Bft) NW 315 13,2 C 17,1 C 0,0 km/h (0 Bft)
20.07.2019 02:50 25,1 C 17,1 C 16,4 C 18,3 C 51 % 78 % 63 % 1017,7 hPa 0,0 l/m 0,0 km/h (0 Bft) NW 315 13,2 C 17,1 C 0,0 km/h (0 Bft)
20.07.2019 02:48 25,1 C 17,2 C 16,5 C 18,3 C 51 % 78 % 63 % 1017,7 hPa 0,0 l/m 0,0 km/h (0 Bft) NW 315 13,3 C 17,2 C 0,0 km/h (0 Bft)
20.07.2019 02:46 25,2 C 17,2 C 16,5 C 18,3 C 51 % 78 % 63 % 1017,7 hPa 0,0 l/m 0,0 km/h (0 Bft) W-NW 292 13,3 C 17,2 C 0,0 km/h (0 Bft)
20.07.2019 02:44 25,1 C 17,2 C 16,5 C 18,3 C 51 % 78 % 63 % 1017,8 hPa 0,0 l/m 0,0 km/h (0 Bft) W-SW 247 13,3 C 17,2 C 0,0 km/h (0 Bft)
20.07.2019 02:42 25,2 C 17,2 C 16,6 C 18,3 C 51 % 78 % 63 % 1017,8 hPa 0,0 l/m 0,0 km/h (0 Bft) NW 315 13,3 C 17,2 C 0,0 km/h (0 Bft)
20.07.2019 02:40 25,2 C 17,3 C 16,7 C 18,3 C 51 % 78 % 63 % 1017,8 hPa 0,0 l/m 0,0 km/h (0 Bft) NW 315 13,4 C 17,3 C 0,0 km/h (0 Bft)
20.07.2019 02:38 25,2 C 17,2 C 16,7 C 18,3 C 51 % 78 % 63 % 1017,8 hPa 0,0 l/m 0,0 km/h (0 Bft) S-SW 202 13,3 C 17,2 C 0,0 km/h (0 Bft)
20.07.2019 02:36 25,2 C 17,2 C 16,7 C 18,3 C 51 % 78 % 63 % 1017,8 hPa 0,0 l/m 0,0 km/h (0 Bft) S 180 13,3 C 17,2 C 0,0 km/h (0 Bft)
20.07.2019 02:34 25,2 C 17,2 C 16,7 C 18,3 C 51 % 78 % 63 % 1017,8 hPa 0,0 l/m 0,0 km/h (0 Bft) S-SO 157 13,3 C 17,2 C 0,0 km/h (0 Bft)
20.07.2019 02:32 25,2 C 17,2 C 16,6 C 18,3 C 51 % 78 % 63 % 1017,8 hPa 0,0 l/m 0,0 km/h (0 Bft) N-NO 22 13,3 C 17,2 C 0,0 km/h (0 Bft)
20.07.2019 02:30 25,2 C 17,2 C 16,6 C 18,3 C 51 % 78 % 63 % 1017,8 hPa 0,0 l/m 0,0 km/h (0 Bft) NW 315 13,3 C 17,2 C 0,0 km/h (0 Bft)
20.07.2019 02:28 25,2 C 17,2 C 16,6 C 18,3 C 51 % 78 % 63 % 1017,8 hPa 0,0 l/m 0,0 km/h (0 Bft) NW 315 13,3 C 17,2 C 0,0 km/h (0 Bft)
20.07.2019 02:26 25,2 C 17,3 C 16,6 C 18,3 C 51 % 78 % 63 % 1017,8 hPa 0,0 l/m 0,0 km/h (0 Bft) N-NW 337 13,4 C 17,3 C 0,0 km/h (0 Bft)
20.07.2019 02:24 25,2 C 17,3 C 16,6 C 18,3 C 51 % 78 % 63 % 1017,8 hPa 0,0 l/m 0,0 km/h (0 Bft) NW 315 13,4 C 17,3 C 0,0 km/h (0 Bft)
20.07.2019 02:22 25,3 C 17,3 C 16,6 C 18,3 C 51 % 78 % 63 % 1017,8 hPa 0,0 l/m 0,0 km/h (0 Bft) NW 315 13,4 C 17,3 C 0,0 km/h (0 Bft)
20.07.2019 02:20 25,3 C 17,4 C 16,6 C 18,3 C 51 % 78 % 63 % 1017,8 hPa 0,0 l/m 0,0 km/h (0 Bft) N-NW 337 13,5 C 17,4 C 0,0 km/h (0 Bft)
20.07.2019 02:18 25,3 C 17,4 C 16,7 C 18,3 C 51 % 78 % 63 % 1017,8 hPa 0,0 l/m 0,0 km/h (0 Bft) NW 315 13,5 C 17,4 C 0,0 km/h (0 Bft)
20.07.2019 02:16 25,2 C 17,4 C 16,8 C 18,3 C 51 % 78 % 63 % 1017,8 hPa 0,0 l/m 0,0 km/h (0 Bft) NW 315 13,5 C 17,4 C 0,0 km/h (0 Bft)
20.07.2019 02:14 25,2 C 17,5 C 16,9 C 18,3 C 51 % 78 % 63 % 1017,8 hPa 0,0 l/m 0,0 km/h (0 Bft) NW 315 13,6 C 17,5 C 0,0 km/h (0 Bft)
20.07.2019 02:12 25,2 C 17,5 C 17,0 C 18,3 C 51 % 78 % 63 % 1017,8 hPa 0,0 l/m 0,0 km/h (0 Bft) NW 315 13,6 C 17,5 C 0,0 km/h (0 Bft)
20.07.2019 02:10 25,4 C 17,5 C 17,1 C 18,3 C 51 % 78 % 63 % 1017,8 hPa 0,0 l/m 0,0 km/h (0 Bft) NW 315 13,6 C 17,5 C 0,0 km/h (0 Bft)
20.07.2019 02:08 25,4 C 17,5 C 17,2 C 18,3 C 51 % 78 % 63 % 1017,8 hPa 0,0 l/m 0,0 km/h (0 Bft) NW 315 13,6 C 17,5 C 0,0 km/h (0 Bft)
20.07.2019 02:06 25,4 C 17,5 C 17,1 C 18,3 C 51 % 78 % 63 % 1017,8 hPa 0,0 l/m 0,0 km/h (0 Bft) SW 225 13,6 C 17,5 C 0,0 km/h (0 Bft)
20.07.2019 02:04 25,4 C 17,5 C 17,1 C 18,3 C 51 % 78 % 63 % 1017,7 hPa 0,0 l/m 0,0 km/h (0 Bft) NW 315 13,6 C 17,5 C 0,0 km/h (0 Bft)
20.07.2019 02:02 25,4 C 17,5 C 17,2 C 18,3 C 51 % 78 % 63 % 1017,7 hPa 0,0 l/m 0,0 km/h (0 Bft) NW 315 13,6 C 17,5 C 0,0 km/h (0 Bft)
20.07.2019 02:00 25,4 C 17,5 C 17,2 C 18,3 C 51 % 78 % 63 % 1017,7 hPa 0,0 l/m 0,0 km/h (0 Bft) NW 315 13,6 C 17,5 C 0,0 km/h (0 Bft)
20.07.2019 01:58 25,4 C 17,5 C 17,3 C 18,3 C 51 % 78 % 63 % 1017,7 hPa 0,0 l/m 0,0 km/h (0 Bft) W 270 13,6 C 17,5 C 0,0 km/h (0 Bft)
20.07.2019 01:56 25,4 C 17,4 C 17,2 C 18,3 C 51 % 78 % 63 % 1017,7 hPa 0,0 l/m 0,0 km/h (0 Bft) N 360 13,5 C 17,4 C 0,0 km/h (0 Bft)
20.07.2019 01:54 25,4 C 17,3 C 17,1 C 18,3 C 51 % 78 % 63 % 1017,7 hPa 0,0 l/m 0,0 km/h (0 Bft) S 180 13,4 C 17,3 C 0,0 km/h (0 Bft)
20.07.2019 01:52 25,4 C 17,3 C 17,1 C 18,3 C 51 % 78 % 63 % 1017,7 hPa 0,0 l/m 0,0 km/h (0 Bft) W 270 13,4 C 17,3 C 0,0 km/h (0 Bft)
20.07.2019 01:50 25,4 C 17,3 C 17,1 C 18,3 C 51 % 77 % 63 % 1017,7 hPa 0,0 l/m 0,0 km/h (0 Bft) W 270 13,2 C 17,3 C 0,0 km/h (0 Bft)
20.07.2019 01:48 25,4 C 17,3 C 17,0 C 18,3 C 51 % 77 % 63 % 1017,7 hPa 0,0 l/m 0,0 km/h (0 Bft) N-NW 337 13,2 C 17,3 C 0,0 km/h (0 Bft)
20.07.2019 01:46 25,5 C 17,3 C 16,9 C 18,3 C 51 % 77 % 63 % 1017,7 hPa 0,0 l/m 0,0 km/h (0 Bft) N-NW 337 13,2 C 17,3 C 0,0 km/h (0 Bft)
20.07.2019 01:44 25,5 C 17,3 C 16,9 C 18,3 C 51 % 77 % 63 % 1018,0 hPa 0,0 l/m 0,0 km/h (0 Bft) NW 315 13,2 C 17,3 C 0,0 km/h (0 Bft)
20.07.2019 01:42 25,5 C 17,4 C 16,9 C 18,3 C 51 % 77 % 63 % 1018,0 hPa 0,0 l/m 0,0 km/h (0 Bft) NW 315 13,3 C 17,4 C 0,0 km/h (0 Bft)
20.07.2019 01:40 25,5 C 17,4 C 16,9 C 18,3 C 51 % 77 % 63 % 1018,0 hPa 0,0 l/m 0,0 km/h (0 Bft) W-NW 292 13,3 C 17,4 C 0,0 km/h (0 Bft)
20.07.2019 01:38 25,5 C 17,4 C 16,8 C 18,3 C 51 % 77 % 63 % 1018,0 hPa 0,0 l/m 0,0 km/h (0 Bft) NW 315 13,3 C 17,4 C 0,0 km/h (0 Bft)
20.07.2019 01:36 25,5 C 17,4 C 16,7 C 18,3 C 51 % 77 % 63 % 1018,0 hPa 0,0 l/m 0,0 km/h (0 Bft) W-NW 292 13,3 C 17,4 C 0,0 km/h (0 Bft)
20.07.2019 01:34 25,5 C 17,5 C 16,8 C 18,3 C 51 % 77 % 63 % 1018,0 hPa 0,0 l/m 0,0 km/h (0 Bft) NW 315 13,4 C 17,5 C 0,0 km/h (0 Bft)
20.07.2019 01:32 25,6 C 17,5 C 16,8 C 18,3 C 51 % 77 % 63 % 1018,0 hPa 0,0 l/m 0,0 km/h (0 Bft) NW 315 13,4 C 17,5 C 0,0 km/h (0 Bft)
20.07.2019 01:30 25,6 C 17,5 C 16,8 C 18,3 C 51 % 77 % 63 % 1018,0 hPa 0,0 l/m 0,0 km/h (0 Bft) W 270 13,4 C 17,5 C 0,0 km/h (0 Bft)
20.07.2019 01:28 25,6 C 17,6 C 16,7 C 18,3 C 51 % 77 % 63 % 1018,0 hPa 0,0 l/m 0,0 km/h (0 Bft) NW 315 13,5 C 17,6 C 0,0 km/h (0 Bft)
20.07.2019 01:26 25,6 C 17,6 C 16,7 C 18,3 C 51 % 77 % 63 % 1018,0 hPa 0,0 l/m 0,0 km/h (0 Bft) W-NW 292 13,5 C 17,6 C 0,0 km/h (0 Bft)
20.07.2019 01:24 25,6 C 17,6 C 16,8 C 18,3 C 51 % 76 % 63 % 1017,9 hPa 0,0 l/m 0,0 km/h (0 Bft) NW 315 13,3 C 17,6 C 0,0 km/h (0 Bft)
20.07.2019 01:22 25,6 C 17,7 C 16,8 C 18,3 C 51 % 76 % 63 % 1017,9 hPa 0,0 l/m 0,0 km/h (0 Bft) NW 315 13,4 C 17,7 C 0,0 km/h (0 Bft)
20.07.2019 01:20 25,6 C 17,7 C 16,8 C 18,3 C 51 % 76 % 63 % 1017,9 hPa 0,0 l/m 0,0 km/h (0 Bft) NW 315 13,4 C 17,7 C 0,0 km/h (0 Bft)
20.07.2019 01:18 25,6 C 17,6 C 16,9 C 18,3 C 51 % 76 % 63 % 1017,9 hPa 0,0 l/m 0,0 km/h (0 Bft) W-NW 292 13,3 C 17,6 C 0,0 km/h (0 Bft)
20.07.2019 01:16 25,6 C 17,6 C 16,9 C 18,3 C 51 % 76 % 63 % 1017,9 hPa 0,0 l/m 0,0 km/h (0 Bft) NW 315 13,3 C 17,6 C 0,0 km/h (0 Bft)
20.07.2019 01:14 25,6 C 17,6 C 16,9 C 18,3 C 51 % 76 % 63 % 1017,9 hPa 0,0 l/m 0,0 km/h (0 Bft) NW 315 13,3 C 17,6 C 0,0 km/h (0 Bft)
20.07.2019 01:12 25,6 C 17,6 C 16,9 C 18,3 C 51 % 76 % 63 % 1017,9 hPa 0,0 l/m 0,0 km/h (0 Bft) W-SW 247 13,3 C 17,6 C 0,0 km/h (0 Bft)
20.07.2019 01:10 25,6 C 17,7 C 16,9 C 18,3 C 51 % 76 % 63 % 1017,9 hPa 0,0 l/m 0,0 km/h (0 Bft) NW 315 13,4 C 17,7 C 0,0 km/h (0 Bft)
20.07.2019 01:08 25,7 C 17,7 C 16,9 C 18,3 C 51 % 76 % 63 % 1017,9 hPa 0,0 l/m 0,0 km/h (0 Bft) N-NO 22 13,4 C 17,7 C 0,0 km/h (0 Bft)
20.07.2019 01:06 25,7 C 17,7 C 16,9 C 18,3 C 51 % 76 % 63 % 1017,9 hPa 0,0 l/m 0,0 km/h (0 Bft) NW 315 13,4 C 17,7 C 0,0 km/h (0 Bft)
20.07.2019 01:04 25,7 C 17,8 C 17,0 C 18,3 C 51 % 76 % 63 % 1018,0 hPa 0,0 l/m 0,0 km/h (0 Bft) W-NW 292 13,5 C 17,8 C 0,0 km/h (0 Bft)
20.07.2019 01:02 25,7 C 17,8 C 17,0 C 18,3 C 51 % 76 % 63 % 1018,0 hPa 0,0 l/m 0,0 km/h (0 Bft) NW 315 13,5 C 17,8 C 0,0 km/h (0 Bft)
20.07.2019 01:00 25,7 C 17,8 C 17,0 C 18,3 C 51 % 76 % 63 % 1018,0 hPa 0,0 l/m 0,0 km/h (0 Bft) NO 45 13,5 C 17,8 C 0,0 km/h (0 Bft)
20.07.2019 00:58 25,7 C 17,9 C 17,0 C 18,3 C 51 % 76 % 63 % 1018,0 hPa 0,0 l/m 0,0 km/h (0 Bft) NW 315 13,6 C 17,9 C 0,0 km/h (0 Bft)
20.07.2019 00:56 25,8 C 17,9 C 17,1 C 18,3 C 51 % 76 % 63 % 1018,0 hPa 0,0 l/m 0,0 km/h (0 Bft) NW 315 13,6 C 17,9 C 0,0 km/h (0 Bft)
20.07.2019 00:54 25,8 C 18,0 C 17,2 C 18,3 C 51 % 75 % 63 % 1018,0 hPa 0,0 l/m 0,0 km/h (0 Bft) NW 315 13,5 C 18,0 C 0,0 km/h (0 Bft)
20.07.2019 00:52 25,8 C 18,0 C 17,2 C 18,3 C 51 % 75 % 63 % 1018,0 hPa 0,0 l/m 0,0 km/h (0 Bft) S-SW 202 13,5 C 18,0 C 0,0 km/h (0 Bft)
20.07.2019 00:50 25,8 C 18,0 C 17,2 C 18,3 C 51 % 75 % 63 % 1018,0 hPa 0,0 l/m 0,0 km/h (0 Bft) W-SW 247 13,5 C 18,0 C 0,0 km/h (0 Bft)
20.07.2019 00:48 25,8 C 18,1 C 17,2 C 18,3 C 51 % 75 % 63 % 1018,0 hPa 0,0 l/m 0,0 km/h (0 Bft) W 270 13,6 C 18,1 C 0,0 km/h (0 Bft)
20.07.2019 00:46 25,8 C 18,2 C 17,2 C 18,3 C 51 % 75 % 63 % 1018,0 hPa 0,0 l/m 0,0 km/h (0 Bft) W-NW 292 13,7 C 18,2 C 0,0 km/h (0 Bft)
20.07.2019 00:44 25,8 C 18,2 C 17,3 C 18,3 C 51 % 75 % 63 % 1018,3 hPa 0,0 l/m 0,0 km/h (0 Bft) NW 315 13,7 C 18,2 C 0,0 km/h (0 Bft)
20.07.2019 00:42 25,8 C 18,2 C 17,3 C 18,3 C 51 % 75 % 63 % 1018,3 hPa 0,0 l/m 0,0 km/h (0 Bft) NW 315 13,7 C 18,2 C 0,0 km/h (0 Bft)
20.07.2019 00:40 25,8 C 18,3 C 17,2 C 18,3 C 51 % 75 % 63 % 1018,3 hPa 0,0 l/m 0,0 km/h (0 Bft) NW 315 13,8 C 18,3 C 0,0 km/h (0 Bft)
20.07.2019 00:38 25,8 C 18,4 C 17,3 C 18,3 C 51 % 75 % 63 % 1018,3 hPa 0,0 l/m 0,0 km/h (0 Bft) NW 315 13,9 C 18,4 C 0,0 km/h (0 Bft)
20.07.2019 00:36 25,9 C 18,5 C 17,4 C 18,3 C 51 % 74 % 63 % 1018,3 hPa 0,0 l/m 0,0 km/h (0 Bft) NW 315 13,8 C 18,5 C 0,0 km/h (0 Bft)
20.07.2019 00:34 25,8 C 18,5 C 17,5 C 18,3 C 51 % 74 % 63 % 1018,3 hPa 0,0 l/m 0,0 km/h (0 Bft) NW 315 13,8 C 18,5 C 0,0 km/h (0 Bft)
20.07.2019 00:32 25,9 C 18,6 C 17,5 C 18,3 C 51 % 74 % 63 % 1018,3 hPa 0,0 l/m 0,2 km/h (0 Bft) NW 315 13,9 C 18,6 C 0,0 km/h (0 Bft)
20.07.2019 00:30 25,9 C 18,6 C 17,7 C 18,3 C 51 % 74 % 63 % 1018,3 hPa 0,0 l/m 0,2 km/h (0 Bft) O-NO 67 13,9 C 18,6 C 0,0 km/h (0 Bft)
20.07.2019 00:28 25,9 C 18,6 C 17,8 C 18,3 C 51 % 74 % 63 % 1018,3 hPa 0,0 l/m 0,2 km/h (0 Bft) NW 315 13,9 C 18,6 C 0,0 km/h (0 Bft)
20.07.2019 00:26 25,9 C 18,6 C 17,9 C 18,3 C 51 % 74 % 63 % 1018,3 hPa 0,0 l/m 0,2 km/h (0 Bft) NW 315 13,9 C 18,6 C 0,0 km/h (0 Bft)
20.07.2019 00:24 25,9 C 18,6 C 17,9 C 18,3 C 51 % 74 % 63 % 1018,4 hPa 0,0 l/m 0,2 km/h (0 Bft) O 90 13,9 C 18,6 C 2,7 km/h (1 Bft)
20.07.2019 00:22 25,9 C 18,6 C 17,9 C 18,3 C 51 % 74 % 63 % 1018,4 hPa 0,0 l/m 0,2 km/h (0 Bft) O-SO 112 13,9 C 18,6 C 2,7 km/h (1 Bft)
20.07.2019 00:20 25,9 C 18,7 C 17,9 C 18,3 C 51 % 74 % 63 % 1018,4 hPa 0,0 l/m 0,0 km/h (0 Bft) S 180 14,0 C 18,7 C 0,0 km/h (0 Bft)
20.07.2019 00:18 26,0 C 18,7 C 17,8 C 18,3 C 51 % 74 % 63 % 1018,4 hPa 0,0 l/m 0,0 km/h (0 Bft) NW 315 14,0 C 18,7 C 0,0 km/h (0 Bft)
20.07.2019 00:16 26,0 C 18,7 C 17,8 C 18,3 C 51 % 74 % 63 % 1018,4 hPa 0,0 l/m 0,0 km/h (0 Bft) NW 315 14,0 C 18,7 C 0,0 km/h (0 Bft)
20.07.2019 00:14 26,0 C 18,7 C 17,9 C 18,3 C 51 % 74 % 63 % 1018,4 hPa 0,0 l/m 0,0 km/h (0 Bft) NW 315 14,0 C 18,7 C 0,0 km/h (0 Bft)
20.07.2019 00:12 26,0 C 18,8 C 18,0 C 18,3 C 51 % 74 % 63 % 1018,4 hPa 0,0 l/m 0,2 km/h (0 Bft) S 180 14,1 C 18,8 C 0,0 km/h (0 Bft)
20.07.2019 00:10 26,0 C 18,8 C 18,0 C 18,3 C 51 % 74 % 63 % 1018,4 hPa 0,0 l/m 0,2 km/h (0 Bft) S 180 14,1 C 18,8 C 0,0 km/h (0 Bft)
20.07.2019 00:08 26,0 C 18,8 C 18,0 C 18,3 C 51 % 74 % 63 % 1018,4 hPa 0,0 l/m 0,2 km/h (0 Bft) S 180 14,1 C 18,8 C 0,0 km/h (0 Bft)
20.07.2019 00:06 26,0 C 18,8 C 18,0 C 18,3 C 51 % 74 % 63 % 1018,4 hPa 0,0 l/m 0,2 km/h (0 Bft) S 180 14,1 C 18,8 C 0,0 km/h (0 Bft)
20.07.2019 00:04 26,0 C 18,8 C 18,0 C 18,3 C 51 % 74 % 63 % 1018,4 hPa 0,0 l/m 0,2 km/h (0 Bft) S 180 14,1 C 18,8 C 0,0 km/h (0 Bft)
20.07.2019 00:02 26,0 C 18,8 C 18,0 C 18,3 C 51 % 74 % 63 % 1018,4 hPa 0,0 l/m 0,2 km/h (0 Bft) SO 135 14,1 C 18,8 C 0,0 km/h (0 Bft)
20.07.2019 00:00 26,0 C 18,8 C 18,0 C 18,3 C 51 % 74 % 63 % 1018,4 hPa 0,0 l/m 0,2 km/h (0 Bft) S-SW 202 14,1 C 18,8 C 0,0 km/h (0 Bft)
_ Min-Zeit 06:34 05:08 04:52 00:00 00:00 09:16 03:44 06:06 - 00:14 - - 05:08 05:08 00:00
Minimum _ 23,8 C 15,7 C 15,5 C 18,3 C 51 % 58 % 60 % 1016,9 hPa - 0,0 km/h (0 Bft) - - 12,6 C 15,7 C 0,0 km/h (0 Bft)
_ Max-Zeit 00:00 09:48 10:06 03:40 03:42 05:14 07:32 00:00 03:16 09:20 - - 09:48 09:48 08:46
Maximum _ 26,0 C 24,2 C 37,9 C 21,8 C 52 % 83 % 64 % 1018,4 hPa 0,1 l/m 2,4 km/h
O-NO (1 Bft)
- - 16,7 C 24,2 C 8,4 km/h
O (2 Bft)
Durchschnitt _ 24,9 C 18,4 C 20,8 C 20,1 C 51 % 75 % 62 % 1017,6 hPa #0,1 l/m 0,4 km/h (0 Bft) NO - 13,9 C 18,4 C 1,4 km/h (1 Bft)